This is the latest recevied weather packets stored in our database for station/object K4MUW-4. If no packets are shown the sender has not sent any weather packets the latest 10 day(s).
| Time | Temp. | Humidity | Pressure | Rain* | Wind** | Luminosity | Snow |
|---|---|---|---|---|---|---|---|
| 1777925873 | 25° C | 30% | 1011 hPa | 0 mm | 1.79 m/s, 157° | - | - |
| 1777925568 | 24.44° C | 30% | 1011 hPa | 0 mm | 1.79 m/s, 197° | - | - |
| 1777925268 | 25° C | 30% | 1011 hPa | 0 mm | 0 m/s | - | - |
| 1777924967 | 25° C | 30% | 1011 hPa | 0 mm | 0 m/s | - | - |
| 1777924662 | 25° C | 30% | 1011 hPa | 0 mm | 1.79 m/s, 214° | - | - |
| 1777924357 | 24.44° C | 30% | 1011 hPa | 0 mm | 1.79 m/s, 193° | - | - |
| 1777924052 | 24.44° C | 30% | 1012 hPa | 0 mm | 1.79 m/s, 221° | - | - |
| 1777923752 | 24.44° C | 29% | 1012 hPa | 0 mm | 1.34 m/s, 105° | - | - |
| 1777923452 | 24.44° C | 30% | 1012 hPa | 0 mm | 1.79 m/s, 218° | - | - |
| 1777923151 | 24.44° C | 30% | 1012 hPa | 0 mm | 1.79 m/s, 178° | - | - |
| 1777922851 | 24.44° C | 31% | 1012 hPa | 0 mm | 1.34 m/s, 209° | - | - |
| 1777922545 | 24.44° C | 31% | 1012 hPa | 0 mm | 1.34 m/s, 165° | - | - |
| 1777922245 | 24.44° C | 31% | 1012 hPa | 0 mm | 0 m/s | - | - |
| 1777921945 | 24.44° C | 31% | 1012 hPa | 0 mm | 1.79 m/s, 313° | - | - |
| 1777921644 | 23.89° C | 31% | 1012 hPa | 0 mm | 1.79 m/s, 264° | - | - |
| 1777921344 | 24.44° C | 31% | 1013 hPa | 0 mm | 0 m/s | - | - |
| 1777921043 | 24.44° C | 31% | 1013 hPa | 0 mm | 0 m/s | - | - |
| 1777920743 | 23.89° C | 31% | 1013 hPa | 0 mm | 0 m/s | - | - |
| 1777920443 | 23.89° C | 31% | 1013 hPa | 0 mm | 0 m/s | - | - |
| 1777920142 | 23.89° C | 32% | 1013 hPa | 0 mm | 0 m/s | - | - |
| 1777919842 | 23.89° C | 32% | 1013 hPa | 0 mm | 1.34 m/s, 300° | - | - |
| 1777919542 | 23.89° C | 31% | 1013 hPa | 0 mm | 1.34 m/s, 183° | - | - |
| 1777919241 | 23.89° C | 31% | 1013 hPa | 0 mm | 3.13 m/s, 212° | - | - |
| 1777918941 | 23.89° C | 32% | 1013 hPa | 0 mm | 1.79 m/s, 177° | - | - |
| 1777918631 | 23.33° C | 32% | 1013 hPa | 0 mm | 2.24 m/s, 191° | - | - |
* Rain latest hour (hover to see other rain measurements)
** Current wind speed in m/s (hover to see current wind gust speed)